Regional Weather Roundup
Issued by NWS

Home | Current Version | Previous Version | Graphics & Text | Print | Product List | Glossary On
Versions: 1 2 3 4 5 6 7 8 9 10 11 12 13 14 15 16 17 18 19 20 21 22 23 24 25 26 27 28 29 30 31 32 33 34 35 36 37 38 39 40 41 42 43 44 45 46 47 48 49 50
000
ASUS43 KLMK 192002
RWRKY
KENTUCKY REGIONAL WEATHER ROUNDUP
NATIONAL WEATHER SERVICE LOUISVILLE KY
400 PM EDT SAT AUG 19 2017

NOTE "FAIR" INDICATES FEW OR NO CLOUDS BELOW 12,000 FEET
WITH NO SIGNIFICANT WEATHER AND/OR OBSTRUCTIONS TO VISIBILITY.

KYZ001>023-026-027-061>063-070>075-192100-
WESTERN AND SOUTH CENTRAL KENTUCKY

CITY           SKY/WX    TMP DP  RH WIND       PRES   REMARKS
PADUCAH        SUNNY     93  66  40 W7        29.93F HX  96
HENDERSON      SUNNY     87  73  62 NW5       29.95F HX  94
OWENSBORO      PTSUNNY   88  72  58 W8        29.95F HX  94
HOPKINSVILLE   SUNNY     89  72  57 SW8       29.95F HX  96
BOWLING GREEN  SUNNY     88  65  46 SW9       29.96F HX  90
GLASGOW        SUNNY     88  65  47 SW7       29.97F HX  90
$$

KYZ024-025-028>034-038-045-046-053-192100-
NORTH CENTRAL KENTUCKY

CITY           SKY/WX    TMP DP  RH WIND       PRES   REMARKS
LOUISVILLE/SDF MOSUNNY   90  62  39 SW13      29.94F HX  90
LOUISVILLE/LOU MOSUNNY   88  65  46 SW12      29.94F HX  90
FORT KNOX      MOSUNNY   87  66  50 S8        29.95F
$$

KYZ035>037-039>044-047>052-055>060-089>105-192100-
NORTHEAST KENTUCKY

CITY           SKY/WX    TMP DP  RH WIND       PRES   REMARKS
LEXINGTON      MOSUNNY   86  64  47 SW6       29.98F
COVINGTON      MOSUNNY   87  67  51 W10       29.94F HX  90
FRANKFORT      MOSUNNY   86  65  49 SW8       29.95F
$$

KYZ054-064>069-076>088-106>120-192100-
SOUTHEAST KENTUCKY

CITY           SKY/WX    TMP DP  RH WIND       PRES   REMARKS
JACKSON        MOSUNNY   85  67  54 VRB5      30.00F
LONDON         SUNNY     85  62  46 S8        30.00F
SOMERSET       NOT AVBL
MIDDLESBORO    MOSUNNY   86  67  52 SE3       30.00F
MONTICELLO     CLEAR     87  69  54 N9        30.01F HX  91
$$





USA.gov is the U.S. government's official web portal to all federal, state and local government web resources and services.